Home   Weather   Pensacola   Past weeks

Flag for USA Past Weather in Pensacola, Florida, USA — December 2017

Now
74 °F

Mostly cloudy.


Feels Like: 71 °F
Forecast: 53 / 68 °F
Wind: No wind

Location: Pensacola Regional Airport

Current Time: Oct 20, 2018 at 7:00:34 pm

Latest Report: Oct 20, 2018 at 5:53 pm


Visibility: 7 mi

Pressure: 30.01 "Hg

Humidity: 94%

Dew Point: 72 °F

Location of PensacolaLocation

December 2017 Weather in Pensacola — Graph

°F

High & Low Weather Summary for December 2017

 TemperatureHumidityPressure
High80 °F (Dec 18, 2:36 pm)100% (Dec 17, 10:53 pm)30.42 "Hg (Dec 17, 10:53 pm)
Low32 °F (Dec 10, 6:53 am)28% (Dec 25, 2:53 pm)29.91 "Hg (Dec 20, 2:16 pm)
Average57 °F78%30.16 "Hg
* Reported Dec 1 12:53 am — Dec 31 11:53 pm, Pensacola. Weather by CustomWeather, © 2018

Note: Actual official high and low records may vary slightly from our data, if they occured in-between our weather recording intervals... More about our weather records

Advertising

Pensacola Weather History for December 1, 2017

Scroll right to see more
 ConditionsComfort  
Time TempWeatherWind HumidityBarometerVisibility
12:53 am
Fri, Dec 1
67 °FLow clouds.7 mph90%30.09 "Hg10 mi
1:11 am66 °FPartly cloudy.5 mph93%30.08 "Hg10 mi
1:28 am67 °FPassing clouds.5 mph90%30.08 "Hg10 mi
1:53 am67 °FLow clouds.6 mph90%30.09 "Hg10 mi
2:03 am67 °FLow clouds.6 mph90%30.08 "Hg10 mi
2:53 am67 °FOvercast.6 mph87%30.09 "Hg10 mi
3:32 am65 °FLow clouds.No wind91%30.08 "Hg10 mi
3:53 am66 °FOvercast.3 mph90%30.09 "Hg10 mi
4:16 am65 °FOvercast.3 mph94%30.08 "Hg10 mi
4:53 am64 °FPassing clouds.No wind94%30.09 "Hg10 mi
5:31 am62 °FFog.No wind93%30.10 "Hg2 mi
5:53 am63 °FFog.No wind93%30.10 "Hg5 mi
6:24 am64 °FPartly sunny.5 mph94%30.11 "Hg10 mi
6:53 am64 °FPartly sunny.5 mph94%30.13 "Hg8 mi
7:53 am66 °FPartly sunny.6 mph87%30.15 "Hg10 mi
8:53 am70 °FPartly sunny.No wind76%30.15 "Hg10 mi
9:53 am71 °FBroken clouds.8 mph71%30.16 "Hg10 mi
10:53 am73 °FOvercast.3 mph66%30.14 "Hg10 mi
11:53 am73 °FBroken clouds.8 mph69%30.12 "Hg10 mi
12:53 pm75 °FScattered clouds.5 mph64%30.10 "Hg10 mi
1:53 pm76 °FPassing clouds.5 mph60%30.08 "Hg10 mi
2:53 pm74 °FPassing clouds.8 mph64%30.08 "Hg10 mi
3:53 pm71 °FClear.7 mph71%30.08 "Hg10 mi
4:53 pm67 °FClear.5 mph81%30.09 "Hg10 mi
5:53 pm66 °FClear.6 mph84%30.11 "Hg10 mi
6:53 pm66 °FClear.5 mph84%30.13 "Hg8 mi
7:53 pm64 °FClear.6 mph87%30.14 "Hg10 mi
8:53 pm62 °FClear.9 mph90%30.14 "Hg9 mi
9:21 pm61 °FPassing clouds.8 mph90%30.14 "Hg8 mi
9:53 pm60 °FFog.7 mph93%30.14 "Hg5 mi
10:57 pm61 °FFog.8 mph93%30.13 "Hg3 mi
11:17 pm61 °FFog.8 mph93%30.13 "Hg2 mi
Weather by CustomWeather, © 2018

See weather overview